Flag for U.S.A. Weather past 2 weeks in El Paso, Texas, U.S.A.

Now
69 °F

Passing clouds.


Feels Like: 69 °F
Forecast: 56 / 84 °F
Wind: 12 mph from Southwest

Location: El Paso International Airport

Current Time: Apr 21, 2015 at 5:58:02 AM

Latest Report: Apr 21, 2015 at 4:51 AM


Visibility: 10 mi

Pressure: 29.70 "Hg

Humidity: 14%

Dew point: 17 °F

Location of El PasoLocation

Historic Weather in El Paso — Graph

°F

El Paso temperature yesterday

Maximum temperature yesterday: 80 °F (at 3:51 PM)
Minimum temperature yesterday: 53 °F (at 4:51 AM)
Average temperature yesterday: 68 °F

Past Weeks' High & Low Weather Summary

 TemperatureHumidityPressure
High86 °F (Apr 6, 3:51 PM)89% (Apr 13, 7:03 AM)30.15 "Hg (Apr 13, 7:03 AM)
Low47 °F (Apr 14, 6:51 AM)5% (Apr 16, 9:51 PM)29.55 "Hg (Apr 8, 4:51 PM)
Average67 °F27%29.80 "Hg
* Reported Apr 6 3:51 AM — Apr 21 3:51 AM, El Paso, Weather by CustomWeather, © 2015

Note: Actual official high and low records may vary slightly from our data, if they occured in-between our weather recording intervals... More about our weather records

Advertising

El Paso weather history for previous 24 hours

 ConditionsComfort  
Time TempWeatherWind HumidityBarometerVisibility
3:51 AM
Tue, Apr 21
68 °FPassing clouds.6 mph16%29.70 "Hg10 mi
2:51 AM63 °FClear.8 mph21%29.71 "Hg10 mi
1:51 AM61 °FClear.8 mph26%29.73 "Hg10 mi
12:51 AM64 °FPassing clouds.3 mph24%29.73 "Hg10 mi
11:51 PM
Mon, Apr 20
68 °FPassing clouds.No wind19%29.70 "Hg10 mi
10:51 PM68 °FPassing clouds.7 mph19%29.70 "Hg10 mi
9:51 PM71 °FPassing clouds.6 mph16%29.70 "Hg10 mi
8:51 PM75 °FPassing clouds.7 mph12%29.69 "Hg10 mi
7:51 PM77 °FPassing clouds.8 mph11%29.67 "Hg10 mi
6:51 PM79 °FPassing clouds.5 mph10%29.66 "Hg10 mi
5:51 PM79 °FScattered clouds.6 mph10%29.66 "Hg10 mi
4:51 PM79 °FScattered clouds.No wind10%29.67 "Hg10 mi
3:51 PM80 °FScattered clouds.3 mph10%29.67 "Hg10 mi
2:51 PM79 °FPassing clouds.6 mph12%29.70 "Hg10 mi
1:51 PM77 °FPassing clouds.5 mph16%29.73 "Hg10 mi
11:51 AM71 °FPassing clouds.7 mph24%29.80 "Hg10 mi
10:51 AM68 °FPassing clouds.6 mph26%29.83 "Hg10 mi
9:51 AM64 °FPassing clouds.3 mph13%29.82 "Hg10 mi
8:51 AM60 °FPassing clouds.5 mph38%29.83 "Hg10 mi
7:51 AM56 °FPassing clouds.3 mph42%29.82 "Hg10 mi
6:51 AM54 °FPassing clouds.3 mph45%29.80 "Hg10 mi
5:51 AM55 °FPassing clouds.3 mph44%29.80 "Hg10 mi
Weather by CustomWeather, © 2015

See weather overviewHow to use our weather pages